Weather in Bogotol

Russia / Krasnoyarsk Krai     56°10′22″N   89°35′08″E
temp.,
°C
wind,
m/s
gust,
m/s
humid.,
%
clouds,
%
prec.,
mm/h
press.,
hPa
HPBL,
m
13 may, thu
thu1301:00+9ese36565 0.0 101599
04:00+8se34635 0.0 101563
07:00+10se35585 0.0 1015138
10:00+16se454011 0.0 1014638
13:00+19se433322 0.0 10132228
16:00+20e332772 0.0 10122640
19:00+17nw3344100 0.0 1012255
22:00+13ene2259100 0.1 101217
14 may, fri
fri1401:00+11ene116498 0.1 101210
04:00+9w23775 0.1 101237
07:00+9nw4886100 0.4 1013334
10:00+11nw477298 0.5 1014821
13:00+12nw895869 0.7 10151585
16:00+13nw710365 0.1 10162083
19:00+11nw583758 0.1 10181783
22:00+7w3850100 0.0 1020161
15 may, sat
sat1501:00+6wsw3757100 0.0 1021139
04:00+7wsw5125393 0.0 1020406
07:00+9wsw81647100 0.0 1018672
10:00+11wsw101855100 0.1 1017827
13:00+16wsw11154390 0.1 10161263
16:00+16wsw101452100 0.0 10151162
19:00+16wsw101556100 0.0 10141040
22:00+14wsw81763100 0.4 1013665
16 may, sun
sun1601:00+13wsw81575100 2.0 1013584
04:00+12w5129094 0.1 1013451
07:00+12w4889100 0.3 1013394
10:00+11wsw3693100 3.0 1013358
13:00+11wsw2794100 10.1 1013282
16:00+11n2397100 7.2 1012206
19:00+10ne339392 7.8 1013309
22:00+9sse0194100 0.0 101437
17 may, mon
mon1701:00+9wsw2496100 0.0 1012167
04:00+10ssw3797100 0.0 1010220
07:00+13wsw81789100 0.2 1007739
10:00+18wsw10167261 0.0 10041109
13:00+22w9185955 0.6 10022051
16:00+17nnw10178142 2.3 10021171
19:00+11nnw5138788 2.6 1006804
22:00+6n5788100 0.1 1011611